CCA2188 ZBAA-ZPPP

Flight info

Callsign CCA2188
Flight time N/A
Altitude 36100
Route BOTPU W47 LOVRA W276 ARELA W30 MEBNA
Aircraft A359/H-SDE2E3GHIJ3J4J5LM1ORWXY/LB1D1

Departure

Time N/A
Airport Beijing Capital International Airport (ZBAA)

Arrival

Time 2026-04-27 14:38
Airport Kunming Changshui International Airport (ZPPP)
Time Latitude Longitude Altitude Speed Heading
2026-04-27 11:47 40.01721 114.85467 32940 ft 394 kts 275°
2026-04-27 11:47 40.01893 114.81861 33142 ft 394 kts 274°
2026-04-27 11:48 40.02057 114.78328 33361 ft 395 kts 275°
2026-04-27 11:48 40.02229 114.74732 33550 ft 395 kts 274°
2026-04-27 11:48 40.02391 114.71185 33739 ft 397 kts 275°
2026-04-27 11:48 40.02558 114.67564 33905 ft 397 kts 275°
2026-04-27 11:49 40.02723 114.63983 34093 ft 397 kts 275°
2026-04-27 11:49 40.02884 114.60407 34260 ft 398 kts 274°
2026-04-27 11:49 40.03045 114.56811 34418 ft 399 kts 274°
2026-04-27 11:49 40.03210 114.53189 34544 ft 400 kts 274°
2026-04-27 11:50 40.03369 114.49606 34672 ft 401 kts 275°
2026-04-27 11:50 40.03522 114.46000 34809 ft 402 kts 275°
2026-04-27 11:50 40.03685 114.42346 34924 ft 402 kts 275°
2026-04-27 11:50 40.03840 114.38728 35002 ft 403 kts 274°
2026-04-27 11:51 40.03997 114.35074 35170 ft 404 kts 275°
2026-04-27 11:51 40.04154 114.31404 35248 ft 404 kts 274°
2026-04-27 11:51 40.04460 114.24111 35481 ft 406 kts 274°
2026-04-27 11:52 40.04613 114.20417 35648 ft 407 kts 275°
2026-04-27 11:52 40.04764 114.16778 35751 ft 408 kts 274°
2026-04-27 11:52 40.04978 114.13082 35897 ft 408 kts 277°
2026-04-27 11:52 40.05258 114.09428 36042 ft 408 kts 276°
2026-04-27 11:53 40.05536 114.05722 36117 ft 409 kts 276°
2026-04-27 11:53 40.06082 113.98334 36194 ft 410 kts 276°
2026-04-27 11:54 40.06617 113.90984 36166 ft 409 kts 277°
2026-04-27 11:54 40.07149 113.83607 36191 ft 410 kts 276°
2026-04-27 11:55 40.07679 113.76237 36159 ft 410 kts 277°
2026-04-27 11:55 40.08207 113.68814 36198 ft 410 kts 277°
2026-04-27 11:56 40.08728 113.61454 36146 ft 411 kts 277°
2026-04-27 11:56 40.09238 113.54067 36199 ft 410 kts 277°
2026-04-27 11:57 40.09747 113.46667 36175 ft 410 kts 277°
2026-04-27 11:57 40.10256 113.39254 36205 ft 411 kts 277°
2026-04-27 11:58 40.10757 113.31872 36197 ft 411 kts 276°
2026-04-27 11:58 40.11250 113.24457 36206 ft 411 kts 276°
2026-04-27 11:59 40.11744 113.17057 36182 ft 411 kts 276°
2026-04-27 11:59 40.12230 113.09633 36214 ft 410 kts 276°
2026-04-27 12:00 40.12707 113.02229 36189 ft 411 kts 276°
2026-04-27 12:00 40.13187 112.94822 36187 ft 411 kts 276°
2026-04-27 12:01 40.13654 112.87408 36180 ft 411 kts 276°
2026-04-27 12:01 40.14124 112.79939 36199 ft 413 kts 277°
2026-04-27 12:02 40.14584 112.72522 36202 ft 413 kts 277°
2026-04-27 12:02 40.15040 112.65067 36193 ft 412 kts 277°
2026-04-27 12:03 40.15411 112.57623 36210 ft 411 kts 273°
2026-04-27 12:03 40.15257 112.50172 36236 ft 413 kts 269°
2026-04-27 12:04 40.14528 112.42773 36220 ft 415 kts 264°
2026-04-27 12:04 40.13199 112.35386 36225 ft 420 kts 259°
2026-04-27 12:05 40.11331 112.28140 36229 ft 423 kts 256°
2026-04-27 12:05 40.09373 112.20959 36239 ft 421 kts 256°
2026-04-27 12:06 40.07390 112.13802 36230 ft 422 kts 256°
2026-04-27 12:06 40.05368 112.06594 36225 ft 422 kts 256°
2026-04-27 12:07 40.03352 111.99438 36229 ft 421 kts 256°
2026-04-27 12:07 40.01019 111.92428 36226 ft 428 kts 250°
2026-04-27 12:08 39.97939 111.85703 36296 ft 435 kts 244°
2026-04-27 12:08 39.94165 111.79512 36241 ft 442 kts 237°
2026-04-27 12:09 39.89707 111.73910 36221 ft 451 kts 231°
2026-04-27 12:09 39.84902 111.68697 36221 ft 448 kts 230°
2026-04-27 12:10 39.80132 111.63551 36216 ft 450 kts 230°
2026-04-27 12:10 39.75323 111.58363 36231 ft 448 kts 230°
2026-04-27 12:11 39.70530 111.53200 36231 ft 447 kts 231°
2026-04-27 12:11 39.65770 111.48081 36235 ft 445 kts 230°
2026-04-27 12:12 39.61024 111.42983 36233 ft 444 kts 231°
2026-04-27 12:12 39.56244 111.37861 36236 ft 444 kts 231°
2026-04-27 12:13 39.51496 111.32774 36237 ft 444 kts 230°
2026-04-27 12:13 39.46764 111.27694 36235 ft 442 kts 230°
2026-04-27 12:14 39.42046 111.22659 36236 ft 440 kts 230°
2026-04-27 12:14 39.37322 111.17633 36230 ft 440 kts 230°
2026-04-27 12:15 39.32622 111.12645 36430 ft 440 kts 231°
2026-04-27 12:15 39.30259 111.10142 36305 ft 437 kts 230°
2026-04-27 12:15 39.27911 111.07657 36239 ft 435 kts 231°
2026-04-27 12:16 39.23366 111.02601 36219 ft 423 kts 237°
2026-04-27 12:16 39.19910 110.96674 36225 ft 406 kts 249°
2026-04-27 12:17 39.17711 110.90179 36218 ft 394 kts 259°
2026-04-27 12:17 39.16719 110.83368 36221 ft 387 kts 270°
2026-04-27 12:18 39.16787 110.76494 36234 ft 384 kts 275°
2026-04-27 12:18 39.17052 110.69640 36225 ft 383 kts 275°
2026-04-27 12:19 39.17345 110.62804 36232 ft 384 kts 275°
2026-04-27 12:19 39.17647 110.55939 36237 ft 384 kts 275°
2026-04-27 12:20 39.17954 110.49104 36244 ft 384 kts 275°
2026-04-27 12:20 39.18263 110.42265 36243 ft 383 kts 275°
2026-04-27 12:21 39.18565 110.35435 36246 ft 383 kts 275°
2026-04-27 12:21 39.18860 110.28594 36247 ft 383 kts 275°
2026-04-27 12:22 39.19155 110.21744 36253 ft 384 kts 275°
2026-04-27 12:22 39.19451 110.14924 36250 ft 382 kts 274°
2026-04-27 12:23 39.19790 110.08121 36258 ft 382 kts 275°
2026-04-27 12:23 39.20123 110.01298 36262 ft 383 kts 275°
2026-04-27 12:24 39.20446 109.94512 36260 ft 383 kts 275°
2026-04-27 12:24 39.20771 109.87654 36261 ft 382 kts 275°
2026-04-27 12:25 39.21081 109.80885 36265 ft 382 kts 275°
2026-04-27 12:25 39.21384 109.74081 36267 ft 381 kts 275°
2026-04-27 12:26 39.21684 109.67235 36268 ft 382 kts 275°
2026-04-27 12:26 39.21283 109.60427 36267 ft 390 kts 261°
2026-04-27 12:27 39.18845 109.54089 36261 ft 410 kts 242°
2026-04-27 12:27 39.16870 109.51366 36266 ft 426 kts 233°
2026-04-27 12:27 39.14414 109.49126 36265 ft 445 kts 222°
2026-04-27 12:27 39.11504 109.47542 36266 ft 468 kts 210°
2026-04-27 12:28 39.08260 109.46570 36290 ft 475 kts 207°
2026-04-27 12:28 39.01785 109.44867 36267 ft 478 kts 206°
2026-04-27 12:29 38.95233 109.43243 36270 ft 480 kts 205°
2026-04-27 12:29 38.88694 109.41647 36270 ft 476 kts 205°
2026-04-27 12:30 38.82194 109.40047 36264 ft 478 kts 205°
2026-04-27 12:30 38.75663 109.38431 36265 ft 480 kts 205°
2026-04-27 12:31 38.69143 109.36822 36255 ft 475 kts 205°
2026-04-27 12:31 38.62645 109.35226 36262 ft 476 kts 205°
2026-04-27 12:32 38.56185 109.33614 36262 ft 475 kts 204°
2026-04-27 12:32 38.49738 109.32024 36261 ft 470 kts 205°
2026-04-27 12:33 38.43275 109.30433 36260 ft 474 kts 204°
2026-04-27 12:33 38.36703 109.29244 36261 ft 481 kts 199°
2026-04-27 12:34 38.29949 109.28738 36266 ft 488 kts 196°
2026-04-27 12:34 38.23177 109.28320 36256 ft 489 kts 196°
2026-04-27 12:35 38.16427 109.27910 36259 ft 488 kts 196°
2026-04-27 12:35 38.09658 109.27497 36255 ft 487 kts 196°
2026-04-27 12:36 38.02924 109.27081 36253 ft 486 kts 196°
2026-04-27 12:36 37.96216 109.26663 36271 ft 482 kts 196°
2026-04-27 12:37 37.89489 109.26250 36267 ft 485 kts 195°
2026-04-27 12:37 37.82707 109.25855 36268 ft 486 kts 195°
2026-04-27 12:38 37.75989 109.25467 36271 ft 486 kts 195°
2026-04-27 12:38 37.69189 109.25069 36282 ft 487 kts 195°
2026-04-27 12:39 37.62458 109.24673 36279 ft 485 kts 195°
2026-04-27 12:39 37.55738 109.24275 36282 ft 485 kts 194°
2026-04-27 12:40 37.48958 109.23879 36281 ft 486 kts 194°
2026-04-27 12:40 37.42193 109.23480 36275 ft 486 kts 194°
2026-04-27 12:41 37.35441 109.23091 36285 ft 486 kts 194°
2026-04-27 12:41 37.28727 109.22699 36291 ft 484 kts 193°
2026-04-27 12:42 37.21993 109.22306 36281 ft 487 kts 194°
2026-04-27 12:42 37.15250 109.21914 36283 ft 483 kts 193°
2026-04-27 12:43 37.08509 109.21522 36285 ft 486 kts 193°
2026-04-27 12:43 37.01736 109.21128 36271 ft 487 kts 193°
2026-04-27 12:44 36.94973 109.20737 36267 ft 488 kts 193°
2026-04-27 12:44 36.88235 109.20352 36260 ft 488 kts 193°
2026-04-27 12:45 36.81443 109.19971 36261 ft 488 kts 193°
2026-04-27 12:45 36.74652 109.19589 36251 ft 488 kts 193°
2026-04-27 12:46 36.67854 109.19199 36247 ft 489 kts 193°
2026-04-27 12:46 36.61057 109.18811 36246 ft 494 kts 193°
2026-04-27 12:47 36.54179 109.18421 36247 ft 492 kts 192°
2026-04-27 12:47 36.47320 109.18039 36254 ft 493 kts 192°
2026-04-27 12:48 36.40481 109.17656 36252 ft 496 kts 193°
2026-04-27 12:48 36.33595 109.17213 36238 ft 500 kts 193°
2026-04-27 12:49 36.26601 109.16723 36243 ft 501 kts 193°
2026-04-27 12:49 36.19661 109.16256 36236 ft 501 kts 193°
2026-04-27 12:50 36.12685 109.15788 36235 ft 502 kts 193°
2026-04-27 12:50 36.05725 109.15330 36231 ft 504 kts 193°
2026-04-27 12:51 35.98711 109.14871 36223 ft 504 kts 193°
2026-04-27 12:51 35.91727 109.14315 36224 ft 500 kts 195°
2026-04-27 12:52 35.84900 109.13058 36226 ft 491 kts 201°
2026-04-27 12:52 35.78341 109.11025 36224 ft 482 kts 206°
2026-04-27 12:53 35.68906 109.06940 36226 ft 477 kts 208°
2026-04-27 12:53 35.62670 109.04176 36228 ft 479 kts 209°
2026-04-27 12:54 35.56417 109.01406 36220 ft 480 kts 209°
2026-04-27 12:54 35.50147 108.98634 36226 ft 478 kts 209°
2026-04-27 12:55 35.43928 108.95885 36233 ft 477 kts 208°
2026-04-27 12:55 35.37673 108.93128 36230 ft 478 kts 208°
2026-04-27 12:56 35.31408 108.90363 36238 ft 477 kts 208°
2026-04-27 12:56 35.25191 108.87631 36242 ft 478 kts 209°
2026-04-27 12:57 35.18933 108.84880 36241 ft 477 kts 208°
2026-04-27 12:57 35.12686 108.82143 36241 ft 476 kts 208°
2026-04-27 12:58 35.06441 108.79413 36236 ft 476 kts 208°
2026-04-27 12:58 35.00204 108.76688 36226 ft 478 kts 208°
2026-04-27 12:59 34.93979 108.73970 36231 ft 478 kts 208°
2026-04-27 12:59 34.87690 108.71236 36228 ft 479 kts 208°
2026-04-27 13:00 34.81387 108.68515 36217 ft 479 kts 208°
2026-04-27 13:00 34.75116 108.65801 36210 ft 479 kts 208°
2026-04-27 13:01 34.68832 108.63082 36209 ft 480 kts 208°
2026-04-27 13:01 34.62557 108.60369 36180 ft 481 kts 207°
2026-04-27 13:02 34.56229 108.57638 36185 ft 482 kts 208°
2026-04-27 13:02 34.49937 108.54926 36162 ft 481 kts 208°
2026-04-27 13:03 34.43606 108.52194 36177 ft 483 kts 207°
2026-04-27 13:03 34.37272 108.49472 36171 ft 482 kts 208°
2026-04-27 13:04 34.30977 108.46770 36175 ft 484 kts 207°
2026-04-27 13:04 34.24618 108.44044 36174 ft 484 kts 207°
2026-04-27 13:05 34.18259 108.41322 36203 ft 486 kts 207°
2026-04-27 13:05 34.11897 108.38605 36232 ft 485 kts 207°
2026-04-27 13:06 34.05566 108.35905 36247 ft 486 kts 207°
2026-04-27 13:06 33.99158 108.33164 36272 ft 486 kts 207°
2026-04-27 13:07 33.92826 108.30449 36286 ft 485 kts 207°
2026-04-27 13:07 33.86475 108.27753 36291 ft 488 kts 206°
2026-04-27 13:08 33.80086 108.25065 36295 ft 486 kts 207°
2026-04-27 13:08 33.73677 108.22364 36293 ft 487 kts 206°
2026-04-27 13:09 33.67297 108.19669 36278 ft 488 kts 206°
2026-04-27 13:09 33.60861 108.16949 36264 ft 488 kts 206°
2026-04-27 13:10 33.54463 108.14259 36235 ft 488 kts 206°
2026-04-27 13:10 33.48080 108.11580 36218 ft 488 kts 206°
2026-04-27 13:11 33.41651 108.08901 36199 ft 490 kts 205°
2026-04-27 13:11 33.35111 108.06518 36197 ft 492 kts 204°
2026-04-27 13:12 33.28558 108.04163 36192 ft 492 kts 203°
2026-04-27 13:12 33.22045 108.01833 36181 ft 491 kts 203°
2026-04-27 13:13 33.15502 107.99498 36178 ft 492 kts 203°
2026-04-27 13:13 33.08928 107.97158 36176 ft 492 kts 203°
2026-04-27 13:14 33.02386 107.94832 36177 ft 493 kts 203°
2026-04-27 13:14 32.95815 107.92501 36174 ft 494 kts 203°
2026-04-27 13:15 32.89200 107.90157 36164 ft 495 kts 202°
2026-04-27 13:15 32.82601 107.87839 36155 ft 493 kts 202°
2026-04-27 13:16 32.76053 107.85539 36158 ft 494 kts 202°
2026-04-27 13:16 32.69471 107.83222 36159 ft 494 kts 202°
2026-04-27 13:17 32.62875 107.80901 36159 ft 493 kts 202°
2026-04-27 13:17 32.56303 107.78591 36146 ft 493 kts 202°
2026-04-27 13:18 32.49722 107.76281 36139 ft 494 kts 202°
2026-04-27 13:18 32.43126 107.73971 36127 ft 493 kts 202°
2026-04-27 13:19 32.36567 107.71677 36114 ft 492 kts 202°
2026-04-27 13:19 32.30022 107.69395 36113 ft 492 kts 202°
2026-04-27 13:20 32.23454 107.67109 36106 ft 493 kts 202°
2026-04-27 13:20 32.16883 107.64819 36108 ft 492 kts 202°
2026-04-27 13:21 32.10294 107.62521 36119 ft 492 kts 202°
2026-04-27 13:21 32.03716 107.60232 36115 ft 492 kts 202°
2026-04-27 13:22 31.97153 107.57957 36111 ft 492 kts 202°
2026-04-27 13:22 31.90585 107.55685 36109 ft 492 kts 202°
2026-04-27 13:23 31.84031 107.53431 36106 ft 492 kts 202°
2026-04-27 13:23 31.77459 107.51175 36104 ft 492 kts 202°
2026-04-27 13:24 31.70884 107.48912 36092 ft 493 kts 202°
2026-04-27 13:24 31.64298 107.46648 36083 ft 492 kts 202°
2026-04-27 13:25 31.57737 107.44398 36075 ft 492 kts 202°
2026-04-27 13:25 31.51174 107.42149 36062 ft 493 kts 202°
2026-04-27 13:26 31.44571 107.39841 36055 ft 493 kts 204°
2026-04-27 13:26 31.38212 107.36991 36049 ft 488 kts 209°
2026-04-27 13:27 31.32132 107.33503 36045 ft 486 kts 212°
2026-04-27 13:27 31.26142 107.29896 36029 ft 486 kts 212°
2026-04-27 13:28 31.20110 107.26286 36021 ft 485 kts 211°
2026-04-27 13:28 31.14126 107.22722 36018 ft 486 kts 211°
2026-04-27 13:29 31.08108 107.19144 36025 ft 487 kts 211°
2026-04-27 13:29 31.02047 107.15546 36014 ft 487 kts 211°
2026-04-27 13:30 30.96032 107.11983 36017 ft 488 kts 211°
2026-04-27 13:30 30.89967 107.08398 36012 ft 488 kts 211°
2026-04-27 13:31 30.83921 107.04848 36015 ft 488 kts 211°
2026-04-27 13:31 30.77879 107.01300 36009 ft 487 kts 211°
2026-04-27 13:32 30.71842 106.97663 36006 ft 485 kts 214°
2026-04-27 13:32 30.66153 106.93536 36004 ft 482 kts 219°
2026-04-27 13:33 30.60659 106.89143 36002 ft 483 kts 219°
2026-04-27 13:33 30.55123 106.84732 36001 ft 482 kts 218°
2026-04-27 13:34 30.49589 106.80325 36002 ft 482 kts 219°
2026-04-27 13:34 30.44064 106.75928 35997 ft 482 kts 218°
2026-04-27 13:35 30.38554 106.71551 35998 ft 482 kts 218°
2026-04-27 13:35 30.32991 106.67142 35999 ft 483 kts 218°
2026-04-27 13:36 30.27480 106.62779 35997 ft 484 kts 218°
2026-04-27 13:36 30.21706 106.58723 35996 ft 488 kts 211°
2026-04-27 13:37 30.15380 106.55812 36001 ft 493 kts 201°
2026-04-27 13:37 30.08649 106.54178 36000 ft 499 kts 191°
2026-04-27 13:38 30.01676 106.53821 36008 ft 504 kts 185°
2026-04-27 13:38 29.94606 106.53832 35997 ft 505 kts 185°
2026-04-27 13:39 29.87586 106.53855 35998 ft 505 kts 185°
2026-04-27 13:39 29.80573 106.53871 36003 ft 505 kts 185°
2026-04-27 13:40 29.73513 106.53883 35998 ft 505 kts 185°
2026-04-27 13:40 29.66508 106.53891 35990 ft 505 kts 185°
2026-04-27 13:41 29.59503 106.53898 35995 ft 504 kts 185°
2026-04-27 13:41 29.52466 106.53905 35995 ft 504 kts 185°
2026-04-27 13:42 29.45458 106.53912 35994 ft 504 kts 185°
2026-04-27 13:42 29.38436 106.53919 35989 ft 504 kts 184°
2026-04-27 13:43 29.31422 106.53925 35995 ft 504 kts 184°
2026-04-27 13:43 29.24368 106.53935 35994 ft 505 kts 185°
2026-04-27 13:44 29.17358 106.53945 36005 ft 504 kts 185°
2026-04-27 13:44 29.10364 106.53956 36013 ft 505 kts 185°
2026-04-27 13:45 29.03352 106.53966 36006 ft 504 kts 185°
2026-04-27 13:45 28.96328 106.53970 36014 ft 504 kts 185°
2026-04-27 13:46 28.89310 106.53970 36026 ft 503 kts 185°
2026-04-27 13:46 28.82304 106.53981 36030 ft 504 kts 184°
2026-04-27 13:47 28.75294 106.53996 36042 ft 504 kts 184°
2026-04-27 13:47 28.68273 106.53999 36054 ft 504 kts 185°
2026-04-27 13:48 28.61249 106.53997 36057 ft 504 kts 185°
2026-04-27 13:48 28.54267 106.53996 36072 ft 504 kts 184°
2026-04-27 13:49 28.47241 106.54002 36078 ft 504 kts 184°
2026-04-27 13:49 28.40221 106.54010 36085 ft 504 kts 184°
2026-04-27 13:50 28.33237 106.54022 36082 ft 504 kts 184°
2026-04-27 13:50 28.26228 106.54033 36081 ft 503 kts 184°
2026-04-27 13:51 28.19255 106.53622 36065 ft 494 kts 197°
2026-04-27 13:51 28.13035 106.50626 36081 ft 483 kts 218°
2026-04-27 13:52 28.08338 106.45322 36081 ft 477 kts 238°
2026-04-27 13:52 28.05539 106.38598 36077 ft 476 kts 250°
2026-04-27 13:53 28.02053 106.28119 36070 ft 476 kts 250°
2026-04-27 13:54 27.99703 106.21085 36068 ft 477 kts 250°
2026-04-27 13:54 27.97362 106.14112 36072 ft 477 kts 249°
2026-04-27 13:55 27.95051 106.07097 36072 ft 477 kts 250°
2026-04-27 13:55 27.92743 106.00037 36077 ft 478 kts 250°
2026-04-27 13:56 27.90436 105.93036 36075 ft 478 kts 250°
2026-04-27 13:56 27.88089 105.86006 36083 ft 478 kts 250°
2026-04-27 13:57 27.85722 105.78947 36084 ft 478 kts 250°
2026-04-27 13:57 27.83385 105.71938 36097 ft 479 kts 250°
2026-04-27 13:58 27.81045 105.64915 36093 ft 479 kts 250°
2026-04-27 13:58 27.78710 105.57909 36094 ft 478 kts 250°
2026-04-27 13:59 27.76383 105.50925 36095 ft 479 kts 250°
2026-04-27 13:59 27.74024 105.43875 36100 ft 479 kts 250°
2026-04-27 14:00 27.71679 105.36889 36112 ft 479 kts 250°
2026-04-27 14:00 27.69322 105.29868 36118 ft 479 kts 249°
2026-04-27 14:01 27.66944 105.22839 36126 ft 480 kts 248°
2026-04-27 14:01 27.64074 105.16061 36139 ft 481 kts 242°
2026-04-27 14:02 27.60512 105.09738 36157 ft 481 kts 235°
2026-04-27 14:02 27.56250 105.03877 36168 ft 483 kts 228°
2026-04-27 14:03 27.51490 104.98537 36172 ft 484 kts 226°
2026-04-27 14:03 27.46668 104.93283 36174 ft 485 kts 226°
2026-04-27 14:04 27.41816 104.88002 36177 ft 486 kts 226°
2026-04-27 14:04 27.36965 104.82730 36185 ft 486 kts 226°
2026-04-27 14:05 27.32093 104.77442 36190 ft 486 kts 226°
2026-04-27 14:05 27.27217 104.72157 36202 ft 487 kts 226°
2026-04-27 14:06 27.22365 104.66908 36207 ft 487 kts 226°
2026-04-27 14:06 27.17458 104.61639 36208 ft 488 kts 225°
2026-04-27 14:07 27.12546 104.56385 36220 ft 488 kts 225°
2026-04-27 14:07 27.07621 104.51123 36225 ft 490 kts 225°
2026-04-27 14:08 27.02683 104.45859 36243 ft 490 kts 225°
2026-04-27 14:08 26.97746 104.40602 36241 ft 490 kts 225°
2026-04-27 14:09 26.92826 104.35372 36248 ft 491 kts 225°
2026-04-27 14:09 26.87857 104.30083 36254 ft 492 kts 225°
2026-04-27 14:10 26.82690 104.25013 36258 ft 493 kts 221°
2026-04-27 14:10 26.77425 104.20077 36257 ft 494 kts 221°
2026-04-27 14:11 26.72182 104.15174 36256 ft 494 kts 221°
2026-04-27 14:11 26.66898 104.10240 36244 ft 495 kts 221°
2026-04-27 14:12 26.61610 104.05313 36248 ft 496 kts 221°
2026-04-27 14:12 26.56314 104.00382 36238 ft 497 kts 221°
2026-04-27 14:13 26.51000 103.95441 36236 ft 497 kts 221°
2026-04-27 14:13 26.45682 103.90503 36234 ft 498 kts 221°
2026-04-27 14:14 26.40347 103.85557 36235 ft 498 kts 221°
2026-04-27 14:14 26.35034 103.80640 36249 ft 498 kts 221°
2026-04-27 14:15 26.29676 103.75687 36257 ft 500 kts 221°
2026-04-27 14:15 26.24471 103.70619 36268 ft 498 kts 228°
2026-04-27 14:16 26.20146 103.64636 36282 ft 495 kts 239°
2026-04-27 14:16 26.16981 103.57909 36293 ft 492 kts 250°
2026-04-27 14:17 26.14998 103.50673 36295 ft 482 kts 258°
2026-04-27 14:17 26.14229 103.47122 36054 ft 474 kts 258°
2026-04-27 14:17 26.13463 103.43519 35238 ft 475 kts 258°
2026-04-27 14:17 26.12704 103.39954 34453 ft 474 kts 258°
2026-04-27 14:18 26.11953 103.36442 33678 ft 473 kts 257°
2026-04-27 14:18 26.11184 103.32859 32908 ft 474 kts 257°
2026-04-27 14:18 26.10420 103.29290 32202 ft 478 kts 257°
2026-04-27 14:18 26.09551 103.25755 31482 ft 480 kts 249°
2026-04-27 14:19 26.08122 103.22379 30793 ft 483 kts 240°
2026-04-27 14:19 26.06230 103.19337 30108 ft 486 kts 231°
2026-04-27 14:19 26.03882 103.16607 29412 ft 489 kts 221°
2026-04-27 14:19 26.01203 103.14342 28715 ft 491 kts 213°
2026-04-27 14:20 25.98185 103.12524 27984 ft 493 kts 206°
2026-04-27 14:20 25.95074 103.10935 27249 ft 491 kts 205°
2026-04-27 14:20 25.92019 103.09418 26490 ft 473 kts 205°
2026-04-27 14:20 25.89218 103.07653 25718 ft 455 kts 221°
2026-04-27 14:21 25.87182 103.05013 25063 ft 452 kts 240°
2026-04-27 14:21 25.86126 103.01801 24353 ft 441 kts 261°
2026-04-27 14:21 25.85881 102.98496 23719 ft 426 kts 267°
2026-04-27 14:21 25.85926 102.95240 23076 ft 413 kts 270°
2026-04-27 14:22 25.85780 102.92128 22431 ft 402 kts 261°
2026-04-27 14:22 25.84994 102.89216 21796 ft 390 kts 242°
2026-04-27 14:22 25.83665 102.86647 21189 ft 382 kts 238°
2026-04-27 14:22 25.82272 102.84179 20569 ft 374 kts 238°
2026-04-27 14:23 25.80823 102.81852 19951 ft 368 kts 231°
2026-04-27 14:23 25.79085 102.79745 19341 ft 373 kts 226°
2026-04-27 14:23 25.77249 102.77700 18730 ft 379 kts 226°
2026-04-27 14:23 25.75362 102.75635 18114 ft 382 kts 223°
2026-04-27 14:24 25.73260 102.73812 17478 ft 385 kts 216°
2026-04-27 14:24 25.71017 102.72204 16843 ft 387 kts 214°
2026-04-27 14:24 25.68739 102.70615 16203 ft 387 kts 214°
2026-04-27 14:24 25.66394 102.69199 15564 ft 390 kts 205°
2026-04-27 14:25 25.63860 102.68114 14926 ft 391 kts 202°
2026-04-27 14:25 25.61240 102.67236 14256 ft 394 kts 191°
2026-04-27 14:25 25.58521 102.67090 13624 ft 396 kts 178°
2026-04-27 14:25 25.55797 102.67781 12965 ft 402 kts 159°
2026-04-27 14:26 25.53444 102.69415 12343 ft 405 kts 139°
2026-04-27 14:26 25.51705 102.71836 11966 ft 400 kts 120°
2026-04-27 14:26 25.50794 102.74676 11866 ft 387 kts 101°
2026-04-27 14:26 25.50555 102.77583 11862 ft 370 kts 94°
2026-04-27 14:27 25.50435 102.80336 11849 ft 354 kts 93°
2026-04-27 14:27 25.50329 102.82989 11845 ft 338 kts 94°
2026-04-27 14:27 25.50219 102.85531 11849 ft 323 kts 94°
2026-04-27 14:27 25.50108 102.87939 11849 ft 308 kts 94°
2026-04-27 14:28 25.49994 102.90270 11852 ft 294 kts 94°
2026-04-27 14:28 25.49883 102.92481 11858 ft 281 kts 94°
2026-04-27 14:28 25.49773 102.94632 11865 ft 280 kts 94°
2026-04-27 14:28 25.49662 102.96767 11868 ft 279 kts 94°
2026-04-27 14:29 25.49552 102.98903 11870 ft 280 kts 94°
2026-04-27 14:29 25.49440 103.01049 11789 ft 280 kts 94°
2026-04-27 14:29 25.49325 103.03207 11664 ft 279 kts 95°
2026-04-27 14:29 25.49211 103.05335 11542 ft 278 kts 94°
2026-04-27 14:30 25.49097 103.07484 11422 ft 281 kts 94°
2026-04-27 14:30 25.48773 103.09623 11270 ft 285 kts 115°
2026-04-27 14:30 25.47704 103.11463 11171 ft 289 kts 131°
2026-04-27 14:30 25.46420 103.13187 11045 ft 290 kts 132°
2026-04-27 14:31 25.45124 103.14924 10923 ft 290 kts 131°
2026-04-27 14:31 25.43847 103.16662 10804 ft 292 kts 131°
2026-04-27 14:31 25.42580 103.18394 10685 ft 291 kts 133°
2026-04-27 14:31 25.41030 103.19746 10520 ft 276 kts 163°
2026-04-27 14:32 25.39210 103.19909 10401 ft 257 kts 198°
2026-04-27 14:32 25.37723 103.18942 10320 ft 243 kts 225°
2026-04-27 14:32 25.36530 103.17593 10234 ft 247 kts 227°
2026-04-27 14:32 25.35323 103.16251 10165 ft 247 kts 225°
2026-04-27 14:33 25.34052 103.14970 10097 ft 248 kts 222°
2026-04-27 14:33 25.32739 103.13750 10026 ft 246 kts 220°
2026-04-27 14:33 25.31392 103.12549 9955 ft 246 kts 220°
2026-04-27 14:33 25.30059 103.11385 9887 ft 245 kts 219°
2026-04-27 14:34 25.28703 103.10211 9816 ft 245 kts 219°
2026-04-27 14:34 25.27352 103.09045 9792 ft 244 kts 219°
2026-04-27 14:34 25.26018 103.07893 9789 ft 244 kts 219°
2026-04-27 14:34 25.24682 103.06738 9779 ft 239 kts 219°
2026-04-27 14:35 25.23386 103.05614 9626 ft 234 kts 219°
2026-04-27 14:35 25.22112 103.04507 9370 ft 231 kts 219°
2026-04-27 14:35 25.20897 103.03451 9075 ft 219 kts 219°
2026-04-27 14:35 25.19720 103.02428 8781 ft 209 kts 219°
2026-04-27 14:36 25.18602 103.01456 8512 ft 199 kts 219°
2026-04-27 14:36 25.17550 103.00541 8255 ft 187 kts 219°
2026-04-27 14:36 25.16544 102.99666 8047 ft 182 kts 218°
2026-04-27 14:36 25.15557 102.98810 7834 ft 181 kts 218°
2026-04-27 14:37 25.14596 102.97973 7620 ft 181 kts 218°
2026-04-27 14:37 25.13650 102.97146 7385 ft 167 kts 218°
2026-04-27 14:37 25.12780 102.96388 7176 ft 152 kts 218°
2026-04-27 14:37 25.11959 102.95670 7000 ft 150 kts 217°
2026-04-27 14:38 25.11145 102.94989 6928 ft 145 kts 218°
2026-04-27 14:38 25.10458 102.94375 6919 ft 91 kts 220°
2026-04-27 14:38 25.10136 102.94102 6919 ft 32 kts 229°
2026-04-27 14:38 25.10051 102.93960 6919 ft 13 kts 240°
2026-04-27 14:39 25.10004 102.93866 6919 ft 14 kts 240°
2026-04-27 14:39 25.09971 102.93774 6919 ft 12 kts 253°
2026-04-27 14:39 25.09992 102.93685 6919 ft 12 kts 304°
2026-04-27 14:39 25.10043 102.93604 6919 ft 13 kts 306°
2026-04-27 14:40 25.10092 102.93522 6919 ft 11 kts 296°
2026-04-27 14:40 25.10122 102.93446 6919 ft 9 kts 304°
2026-04-27 14:40 25.10174 102.93422 6919 ft 4 kts
2026-04-27 14:40 25.10184 102.93424 6919 ft 0 kts 10°